www.pogodaiklimat.ru

Погода и климат >> Архив погоды >> Россия >> Якутия >> Якутск


АРХИВ ПОГОДЫ в Якутске

Время (UTC), дата Ветер
(напр.,м/с)
 
Видим.   Явления Облачность Т
(С)
Тd
(С)
f
(%)
Тe
(С)
Тes
(С)
Комфортность P
(гПа)
Po
(гПа)
Тmin
(С)
Tmax
(С)
R
(мм)
R24
(мм)
S
(см)
03 13.09 СВ 4 50 км ясно +9.9 +0.3 51 +8 +11 по сезону 1017.2 1005.0
06 13.09 СВ 4 50 км 1/0
[Ci fib]
+12.0 -0.7 41 +10 +13 по сезону 1015.7 1003.6
09 13.09 В 2 50 км 1/0
[Ci fib]
+11.9 +1.0 47 +11 +11 тепло 1015.8 1003.7
12 13.09 С 2 50 км ясно +6.4 +2.4 76 +4 +4 по сезону 1016.2 1003.8 +12.8
15 13.09 С 2 50 км ясно +4.4 +1.2 80 +2 +2 по сезону 1016.6 1004.1
18 13.09 С 1 50 км ясно -0.6 -2.1 90 -3 -3 прохладно 1017.0 1004.3
21 13.09 С 1 50 км 6/0
[Ci fib]
0.0 -1.6 89 -2 -2 прохладно 1017.0 1004.3
00 14.09 СВ 2 50 км 3/0
[Ci fib]
+5.0 +1.5 78 +3 +5 по сезону 1016.3 1003.8 -0.8
03 14.09 СВ 2 50 км 8/0
[Ac trans Ci fib]
+11.4 +3.0 56 +11 +14 тепло 1014.4 1002.2
06 14.09 В 3 50 км 10/3 600 м
[Sc Ac trans Ci fib]
+12.1 +0.1 44 +11 +12 по сезону 1013.4 1001.3
09 14.09 ЮВ 3 50 км 10/3 1000 м
[Sc Ac trans]
+10.7 +3.4 61 +9 +9 по сезону 1013.0 1000.8
12 14.09 штиль 0 50 км {дождь} 10/4 1000 м
[Sc Ac trans]
+7.6 +4.4 80 +7 +7 по сезону 1012.3 1000.0 +13.4 0.0
15 14.09 Ю 1 20 км слабый дождь 10/8 720 м
[Sc Ac trans]
+6.5 +4.5 87 +5 +5 по сезону 1011.7 999.4
18 14.09 СЗ 1 50 км {дождь} 10/5 600 м
[Sc Ac trans]
+5.5 +4.8 95 +4 +4 по сезону 1011.0 998.6
21 14.09 С 1 50 км 10/6 600 м
[Sc Ac trans]
+5.9 +4.6 91 +5 +5 по сезону 1009.9 997.6
00 15.09 СВ 1 20 км слабый дождь 10/5 600 м
[Sc Ac trans]
+6.5 +5.7 95 +5 +6 по сезону 1009.2 996.9 +5.4 0.7
03 15.09 СВ 1 20 км слабый дождь 10/6 600 м
[Cu Sc Ac trans]
+8.7 +7.0 89 +8 +9 по сезону 1007.7 995.6
06 15.09 С 1 50 км {дождь} 10/8 1020 м
[Cu Sc Ac trans]
+10.7 +7.5 81 +10 +11 по сезону 1006.3 994.2
09 15.09 С 1 50 км 10/4 1000 м
[Sc Ac trans Ci fib]
+11.1 +7.0 76 +11 +11 тепло 1005.2 993.2
12 15.09 З 1 20 км 6/3 1000 м
[Sc Ac trans Ci fib]
+5.5 +3.7 88 +4 +4 по сезону 1005.0 992.7 +11.3 0.0
15 15.09 СВ 2 20 км 6/0
[Ac trans Ci fib]
+8.3 +4.9 79 +6 +6 тепло 1004.2 992.0
18 15.09 штиль 0 20 км ясно +1.4 -0.2 89 0 0 по сезону 1004.7 992.2
21 15.09 СЗ 1 50 км 4/0
[Ac trans Ci fib]
-0.9 -1.7 94 -3 -3 прохладно 1004.9 992.3
00 16.09 С 3 50 км 10/0
[Ci fib]
+8.8 +1.5 60 +7 +8 тепло 1003.9 991.7 -1.0
03 16.09 С 3 50 км 6/0
[Ci fib]
+14.0 -1.6 34 +13 +17 тепло 1003.1 991.2
06 16.09 С 3 50 км 9/0
[Ci fib]
+15.5 -1.8 30 +15 +17 тепло 1002.8 990.9
09 16.09 С 2 50 км 9/0
[Ci]
+13.9 -3.3 30 +14 +14 тепло 1003.4 991.5
12 16.09 З 1 50 км 8/0
[Ci fib]
+11.1 -0.0 46 +11 +14 тепло 1004.5 992.1 +15.6
15 16.09 С 2 50 км 6/0
[Ci fib]
+8.1 -0.2 56 +7 +7 тепло 1004.4 992.2
18 16.09 С 1 50 км 4/0
[Ci fib]
+5.9 +0.1 66 +5 +5 тепло 1004.7 992.4
21 16.09 СЗ 2 50 км 1/0
[Ac trans]
+3.7 -0.6 73 +1 +1 по сезону 1005.3 992.9
00 17.09 СЗ 2 50 км ясно +7.0 +0.9 65 +5 +7 по сезону 1005.4 993.2 +3.3
03 17.09 СЗ 2 50 км ясно +12.6 -1.2 38 +12 +17 тепло 1004.9 992.9
06 17.09 СЗ 3 50 км 3/0
[Ci fib]
+16.1 -1.5 30 +16 +18 тепло 1004.5 992.6
09 17.09 С 1 50 км 8/0
[Ci fib]
+12.6 -1.4 38 +13 +13 тепло 1005.5 993.5
12 17.09 СЗ 1 50 км 10/0
[Ci fib]
+5.1 +0.5 72 +4 +4 по сезону 1006.7 994.4 +16.4
15 17.09 З 1 50 км 6/0
[Ci fib]
+5.6 +0.5 70 +5 +5 по сезону 1006.6 994.3
18 17.09 СЗ 3 50 км 8/0
[Ac trans Ci fib]
+4.7 +0.4 74 +1 +1 по сезону 1007.1 994.8
21 17.09 СЗ 2 50 км 8/0
[Ac trans Ci fib]
+2.7 -0.2 81 -0 -0 по сезону 1007.7 995.3
00 18.09 СЗ 3 50 км 10/0
[Ac trans Ci fib]
+6.8 +1.5 69 +4 +5 по сезону 1008.0 995.8 +2.3
03 18.09 С 1 50 км 10/0
[Ac trans Ci fib]
+11.2 +0.4 47 +11 +14 тепло 1008.2 996.1
06 18.09 СЗ 2 50 км 10/0
[Ac trans Ci fib]
+12.0 -1.0 41 +11 +13 тепло 1008.8 996.7
09 18.09 СЗ 2 50 км 4/0
[Ac trans Ci fib]
+10.7 +0.6 50 +10 +10 тепло 1009.3 997.2
12 18.09 С 1 50 км 10/3 1000 м
[Sc Ac trans Ci fib]
+8.6 +2.2 64 +8 +8 тепло 1009.5 997.3 +12.9
15 18.09 СЗ 1 50 км 10/3 1000 м
[Sc Ac trans]
+7.0 +2.6 74 +6 +6 тепло 1009.7 997.4
18 18.09 СЗ 3 50 км 10/4 1000 м
[Sc Ac trans]
+5.5 +2.3 80 +2 +2 по сезону 1010.1 997.7
21 18.09 СЗ 2 50 км {дождь} 10/4 1000 м
[Sc Ac trans]
+4.3 +2.1 86 +2 +2 по сезону 1010.7 998.3
00 19.09 СЗ 2 50 км {дождь} 10/4 1000 м
[Sc Ac trans Ci fib]
+5.6 +2.8 82 +3 +4 по сезону 1010.6 998.2 +4.2 0.0
03 19.09 СЗ 1 50 км 10/6 1000 м
[Sc Ac trans]
+8.2 +3.4 72 +8 +9 по сезону 1010.8 998.5
06 19.09 З 2 50 км 10/4 1000 м
[Cu med, cong Ac trans Ci fib]
+11.5 +3.0 56 +11 +11 тепло 1010.5 998.4
09 19.09 СЗ 3 50 км 10/4 1000 м
[Sc Ac trans Ci fib]
+8.4 +3.5 71 +6 +6 по сезону 1011.5 999.3
12 19.09 СЗ 3 50 км 10/0
[Ac trans Ci fib]
+5.0 +2.0 81 +2 +2 по сезону 1012.5 1000.1 +11.5
15 19.09 СЗ 3 50 км 10/0
[Ac trans Ci fib]
+2.9 +0.4 84 -1 -1 по сезону 1012.6 1000.1
18 19.09 Ю 1 50 км 6/0
[Ci fib]
+0.6 -1.2 88 -1 -1 по сезону 1013.4 1000.8
21 19.09 Ю 2 50 км 10/3 1000 м
[Sc Ac trans Ci fib]
-0.8 -2.1 91 -5 -5 холодно 1013.6 1000.9
00 20.09 СЗ 2 50 км 6/0
[Ac trans Ci fib]
+4.1 +0.8 79 +1 +3 по сезону 1013.8 1001.3 -1.1

 

Местоположение метеостанции Якутск (Якутия, Россия): широта 62.00 долгота 129.60 высота над уровнем моря 101 м.

В архиве по умолчанию представлена погода в Якутске за последнюю неделю. Архивные данные за месяц целиком и за предыдущие месяцы, начиная с января 2011 года, Вы можете получить, выбрав интересующий диапазон дат из раскрывающегося списка и нажав кнопку "Ввод!".


*Определитесь, кто Вы:
робот инопланетянин человек

Внимание! Время в таблицах - всемирное. Для получения местного времени необходимо прибавить поправку, которая в Якутске равна 9 ч.

Смотрите также архив погоды в соседних городах и на ближайших метеорологических станциях:

Погода в Покровске (Якутия, Россия) (64 км)
Погода в Намцах (Якутия, Россия) (80 км)
Погода в Бердигестяхе (Якутия, Россия) (138 км)
Погода в Чурапче (Якутия, Россия) (157 км)
Погода в Батамае (Якутия, Россия) (169 км)
Погода в Тегюльте (Якутия, Россия) (172 км)
Погода в Амге (Якутия, Россия) (173 км)
Погода в Верхоянском Перевозе (Якутия, Россия) (191 км)
Погода в Ытык-Кюёле (Якутия, Россия) (207 км)
Погода в Сеген-Кюели (Якутия, Россия) (225 км)

Пояснения к столбцам:

Ветер - указаны скорость ветра в м/с - средняя за 10 мин, порывы в срок и между сроками (в фигурных скобках) и направление, откуда дует ветер: С - северный, СВ - северо-восточный, В - восточный, ЮВ - юго-восточный, Ю - южный, ЮЗ - юго-западный, З - западный, СЗ - северо-западный.
Видимость - горизонтальная дальность видимости в метрах или километрах. При видимости от 1 до 10 км при отсутствии осадков обычно наблюдается дымка, при ухудшении видимости до 1 км и менее - туман. В сухую погоду видимость может ухудшаться дымом, пылью или мглою.
Явления - указаны атмосферные явления, наблюдавшиеся в срок или в последний час перед сроком; фигурными скобками обозначены явления, наблюдавшиеся между сроками (за 1-3 часа до срока); квадратными скобками обозначены град или гололедные отложения с указанием их диаметра в мм.
Облачность - указаны через наклонную черту общая и нижняя облачность в баллах и высота нижней границы облаков в метрах; квадратными скобками обозначены формы облаков: Ci - перистые, Cs - перисто-слоистые, Cc - перисто-кучевые, Ac - высококучевые, As - высокослоистые, Sc - слоисто-кучевые, Ns - слоисто-дождевые, Cu - кучевые, Cb - кучево-дождевые. Подробнее классификацию облаков см. в Атласе облаков (PDF).
T - Температура воздуха - температура, измеренная на высоте 2 м над землей.
Td - Температура точки росы - температура, при понижении до которой содержащийся в воздухе водяной пар достигнет насыщения.
f - Относительная влажность воздуха - влажноcть воздуха, измеренная на высоте 2 м над землей.
Te - Эффективная температура - температура, которую ощущает одетый по сезону человек в тени. Характеристика душности погоды. При расчете учитывается влияние влажности воздуха и скорости ветра на теплоощущения человека.
Tes - Эффективная температура на солнце - температура, которую ощущает человек, с поправкой на солнечный нагрев. Характеристика знойности погоды. Зависит от высоты солнца над горизонтом, облачности и скорости ветра. Ночью, в пасмурную погоду, а также при ветре 12 м/с и более поправка равна нулю.
P - Атмосферное давление - приведенное к уровню моря атмосферное давление.
Po - Атмосферное давление - измеренное на уровне метеостанции атмосферное давление.
Tmin - Минимальная температура - минимум температуры воздуха на высоте 2 м над землей.
Tmax - Максимальная температура - максимум температуры воздуха на высоте 2 м над землей.
R - Количество осадков - Количество выпавших осадков за период времени, мм. При наведении курсора мыши на число - период времени, за который выпало указанное количество осадков.
R24 - Количество осадков - Количество выпавших осадков за 24 часа, мм.
S - Снежный покров - Высота снежного покрова, см. При наведении курсора мыши на число - состояние снежного покрова и степень покрытия местности в баллах.